Location: Haliburton Scout Reserve
(45.0900°N, 78.3200°W)
Time: 09:14:06
(UTC-04:00)

Explorer 11/Cluster Stage 4 - Pass Details

Date: 03 February 2023
Orbit: 466 x 1241 km, 28.8° (Epoch: 31 March)

Event Time Altitude Azimuth Distance (km) Brightness Sun altitude
Rises 06:36:10 0° 238° (WSW) 4,101 9.8 -10.0°
Reaches altitude 10° 06:39:39 10° 225° (SW) 3,183 9.4 -9.5°
Maximum altitude 06:45:43 24° 177° (S) 2,331 9.2 -8.4°
Drops below altitude 10° 06:51:42 10° 128° (SE) 3,129 10.9 -7.4°
Sets 06:55:05 0° 115° (ESE) 4,016 12.5 -6.8°
